778  
ASUS41 KPHI 071913  
RWRPHI  
 
REGIONAL WEATHER ROUNDUP  
NATIONAL WEATHER SERVICE MOUNT HOLLY NJ  
300 PM EDT TUE JUL 07 2020  
 
NOTE: "FAIR" INDICATES FEW OR NO CLOUDS BELOW 12,000 FEET WITH NO  
SIGNIFICANT WEATHER AND/OR S TO VISIBILITY
.  
 
* = STATION DOES NOT REPORT PRECIPITATION (E.G. RAIN, SNOW, ETC.)  
OR FOG.
 
 
NJZ015>026-072000-  
SOUTHERN NEW JERSEY  
 
CITY SKY/WX TMP DP RH WIND PRES REMARKS
 
POMONA SUNNY 86 71 60 SE10 30.07F HX 91  
WILDWOOD* CLOUDY 81 73 76 SE12 30.09R  
MILLVILLE MOSUNNY 83 71 67 VRB5 30.07S  
WRIGHTSTOWN PTSUNNY 85 72 63 SE5 30.05F HX 91  
MOUNT HOLLY MOSUNNY 87 67 51 VRB3 30.04F HX 90  
TRENTON MOSUNNY 89 69 51 S9 30.05F HX 93  
 

 
NJZ001>014-072000-  
NORTHERN NEW JERSEY  
 
CITY SKY/WX TMP DP RH WIND PRES REMARKS
 
SUSSEX CLOUDY 83 69 62 VRB7 30.08F  
ANDOVER* N/A 83 68 60 VRB7 30.08F  
MORRISTOWN PTSUNNY 82 73 74 SE14 30.09S  
NEWARK PTSUNNY 81 70 69 SE10G21 30.09S  
TETERBORO CLOUDY 80 68 66 S9 30.07F  
CALDWELL PTSUNNY 85 69 58 SE13 30.09S  
SOMERVILLE PTSUNNY 85 72 65 E8 30.05F HX 91  
ALLAIRE* CLOUDY 79 79 100 E12 30.10F  
TOMS RIVER* MOSUNNY 86 72 62 SE9 30.07F HX 92  
 

 
PAZ043-044-047-054-055-060>062-066>071-072000-  
EASTERN PENNSYLVANIA  
 
CITY SKY/WX TMP DP RH WIND PRES REMARKS
 
PHILADELPHIA PTSUNNY 86 70 58 SE8 30.05F HX 90  
NORTH PHILA MOSUNNY 87 69 54 VRB6 30.06F HX 91  
BLUE BELL* PTSUNNY 86 71 60 S8 30.07F HX 91  
DOYLESTOWN MOSUNNY 87 67 51 S6 30.06F HX 90  
QUAKERTOWN* PTSUNNY 86 68 54 SE8 30.08  
PERKASIE* FAIR 82 68 61 SW5 30.08F  
POTTSTOWN MOSUNNY 84 68 58 S7 30.08F  
LANCASTER CLOUDY 81 69 67 SE5 30.07F  
COATESVILLE PTSUNNY 79 72 78 CALM 30.10S  
WEST CHESTER N/A 82 68 61 CALM 30.08S  
READING N/A N/A N/A N/A MISG 30.05F  
ALLENTOWN MOSUNNY 85 67 54 VRB6 30.06F  
QN CITY/ALNTWN FAIR 84 68 58 S3 30.07F  
MOUNT POCONO PTSUNNY 76 65 68 S9 30.13F  
HAZLETON CLOUDY 73 64 73 S3 30.15F  
LEHIGHTON MOCLDY 81 70 69 CALM 30.08F  
WILKES BARRE CLOUDY 82 66 58 SW10 30.08F  
 

 
DEZALL-MDZ008-012-015-019-020-072000-  
DELAWARE AND EASTERN MARYLAND  
 
CITY SKY/WX TMP DP RH WIND PRES REMARKS
 
WILMINGTON CLOUDY 84 70 62 S9 30.06F  
DOVER MOSUNNY 84 74 70 E9 30.05F HX 91  
CHESWOLD MOCLDY 84 77 79 VRB6G13 30.05F HX 94  
GEORGETOWN CLOUDY 84 73 69 S15G23 30.08R HX 90  
EASTON PTSUNNY 91 75 59 SW6 30.08F HX 102  
STEVENSVILLE MOSUNNY 84 79 84 W5 30.05F HX 96  
ABERDEEN PTSUNNY 85 73 68 E5 30.04F HX 91  
PATUXENT MOSUNNY 86 78 77 SE16 30.04 HX 98  
OCEAN CITY LGT RAIN 75 71 87 W5 30.09S  
WALLOPS ISLAND CLOUDY 82 75 79 S12 30.08S  
CAMBRIDGE MOSUNNY 88 73 62 S10 30.05S HX 96  
SALISBURY CLOUDY 74 69 85 S17G28 30.08S  
 

 
PAZ001-021-NYZ056-072-MDZ011-DCZ001-072000-  
OTHER NEARBY LOCATIONS  
 
CITY SKY/WX TMP DP RH WIND PRES REMARKS
 
HARRISBURG CLOUDY 80 69 69 VRB5 30.06F  
STATE COLLEGE MOSUNNY 82 70 65 S8 30.05F  
WILLIAMSPORT PTSUNNY 82 67 60 S13 30.04F  
BINGHAMTON CLOUDY 76 65 68 S7 30.08F  
NEW YORK CITY CLOUDY 81 69 67 CALM 30.12F  
BALTIMORE MOSUNNY 84 71 65 VRB3 30.04F  
WASHINGTON DC PTSUNNY 86 73 65 SE7 30.04F HX 93  
 

 
 
 
CLICK HERE TO GO TO PREVIOUS BULLETINS.

The Nexlab PA Page
The Nexlab NJ Page
The Nexlab DE Page
The Nexlab MD Page Main Text Page